{"data":{"norad_id":53136,"intl_designator":"2022-083E","name":"STARLINK-4152","alt_names":[],"object_type":"PAYLOAD","status":"ACTIVE","operator":null,"country":"US","launch_date":"2022-07-17","launch_site_code":"AFETR","launch_vehicle":null,"mission":null,"orbit_class":"UNKNOWN","rcs_meters":null,"size_class":null,"mass_kg":null,"dimensions":null,"purposes":["comms"],"wikipedia_slug":null,"has_3d_model":false,"image_url":null,"decayed_at":null,"tle_current":{"epoch":"2026-05-24T20:30:22.542048Z","epoch_age_seconds":83508,"freshness":"FRESH","line1":"1 53136U 22083E   26144.85442757  .00000382  00000+0  42073-4 0  9994","line2":"2 53136  53.2143 192.2046 0001110  79.9092 280.2025 15.08839249213702","mean_motion":15.08839249,"eccentricity":0.000111,"inclination_deg":53.2143,"raan_deg":192.2046,"arg_perigee_deg":79.9092,"mean_anomaly_deg":280.2025,"bstar":4.2073e-5,"rev_number":21370,"period_min":95.437602180244,"perigee_km":538.97779949364,"apogee_km":540.51356944959,"semimajor_km":6917.8826844716,"source":"CELESTRAK","updated_at":"2026-05-25T13:38:17.316200Z"}}}